Zurück zum Katalog

STARLINK-37467

AktivKommunikationSSO
NORAD 68855·PAYLOAD·🇺🇸 United States

Gestartet Apr 26, 2026 von Vandenberg Space Force Base

Loading…

Nächste Überflüge (nächste 24 Stunden)

TLE

AktuellSource: CelesTrak SupGP

Epoche: Sep 14, 2026, 20:57 UTC

1 68855C 26094S   26257.87340278  .00021337  00000+0  66236-3 0  2572
2 68855  97.2836 271.1077 0001615  83.2011  45.0510 15.33428099    12

Verfolge STARLINK-37467 in Echtzeit mit AllMySat

Download on the App Store